Regional Weather Roundup
Issued by NWS

Home | Current Version | Previous Version | Text Only | Print | Product List | Glossary Off
Versions: 1 2 3 4 5 6 7 8 9 10 11 12 13 14 15 16 17 18 19 20 21 22 23 24 25 26 27 28 29 30 31 32 33 34 35 36 37 38 39 40 41 42 43 44 45 46 47 48 49 50

000
ASUS43 KMKX 180321
RWRWI

WISCONSIN REGIONAL WEATHER ROUNDUP
NATIONAL WEATHER SERVICE MILWAUKEE/SULLIVAN WI
900 PM CST WED DEC 17 2014

NOTE: "FAIR" INDICATES FEW OR NO CLOUDS BELOW 12,000 FEET WITH NO
SIGNIFICANT WEATHER AND/OR OBSTRUCTIONS TO VISIBILITY.

WIZ001-002-006>008-014>016-023>028-180400-
NORTHWEST WISCONSIN

CITY           SKY/WX    TMP DP  RH WIND       PRES   REMARKS
SUPERIOR ARPT  CLOUDY    19  16  89 CALM      30.31F
ASHLAND        CLOUDY    20  17  88 W5        30.30S WCI  13
HAYWARD        CLOUDY    18  13  80 CALM      30.27F
SIREN          CLOUDY    12  10  90 CALM      30.30S
CUMBERLAND     CLOUDY    18  12  79 N3        30.27S
RICE LAKE      CLOUDY    18  12  79 NW3       30.30R
CHETEK         CLOUDY    18  12  78 CALM      30.29R
LADYSMITH      CLOUDY    20  16  84 NW7       30.27S WCI  11
EAU CLAIRE     CLOUDY    18  11  74 W3        30.29S
MENOMONIE      CLOUDY    18  12  79 W5        30.31R WCI  11
NEW RICHMOND   PTCLDY    11  10  94 CALM      30.31R
OSCEOLA        PTCLDY    12  11  95 CALM      30.35R
$$

WIZ003>005-009-010-017-018-180400-
NORTH CENTRAL WISCONSIN

CITY           SKY/WX    TMP DP  RH WIND       PRES   REMARKS
MANITOWISH WTR CLOUDY    20  18  91 N8        30.21S WCI  11
ARBOR VITAE    CLOUDY    22  19  88 NE7       30.21R WCI  14
WOODRUFF       CLOUDY    22  19  88 NE7       30.21R WCI  14
RHINELANDER    CLOUDY    20  17  88 N9        30.20R WCI   9
EAGLE RIVER    CLOUDY    21  20  96 N10       30.20S WCI  10
LAND O LAKES   CLOUDY    21  20  96 N9        30.20S WCI  11
PHILLIPS       CLOUDY    21  18  86 N9        30.22S WCI  11
TOMAHAWK       CLOUDY    21  18  88 N6        30.21S WCI  14
MEDFORD        CLOUDY    19  16  86 N7        30.20F WCI  10
MERRILL        CLOUDY    22  19  89 N7        30.21S WCI  14
$$

WIZ029-030-035-036-043>047-180400-
CENTRAL WISCONSIN

CITY           SKY/WX    TMP DP  RH WIND       PRES   REMARKS
WAUSAU         CLOUDY    23  18  81 N8        30.20F WCI  14
MOSINEE        CLOUDY    23  21  93 N8        30.22S WCI  14
MARSHFIELD     CLOUDY    20  14  77 W6        30.23R WCI  12
STEVENS POINT  CLOUDY    20  14  77 W3        30.23S
WAUPACA        CLOUDY    24  16  71 W3        30.23F
WAUTOMA        CLOUDY    20  14  77 W5        30.26S WCI  14
WISC RAPIDS    CLOUDY    19  12  74 W6        30.26S WCI  11
CAMP DOUGLAS   CLOUDY    18  18 100 W7        30.28S WCI   8
$$

WIZ011>013-019>022-031-037>040-048>050-180400-
NORTHEAST WISCONSIN

CITY           SKY/WX    TMP DP  RH WIND       PRES   REMARKS
ANTIGO         CLOUDY    22  19  91 N10       30.18F WCI  11
SHAWANO        CLOUDY    27  20  76 CALM      30.22S
OCONTO         CLOUDY    27  21  79 N7        30.21S WCI  19
STURGEON BAY   CLOUDY    27  19  74 NW14      30.20S WCI  15
GREEN BAY      CLOUDY    27  20  75 NW8       30.21S WCI  19
MANITOWOC      CLOUDY    26  20  77 W9        30.21S WCI  17
APPLETON       CLOUDY    21  16  79 W12       30.22S WCI   9
CLINTONVILLE   CLOUDY    27  19  74 N6        30.22S WCI  20
OSHKOSH        CLOUDY    21  14  74 W7        30.23S WCI  12
$$

WIZ032>034-041-042-053>061-180400-
SOUTHWEST WISCONSIN

CITY           SKY/WX    TMP DP  RH WIND       PRES   REMARKS
LA CROSSE      MOCLDY    19  12  74 NW5       30.32S WCI  12
SPARTA         CLOUDY    19  13  80 CALM      30.31S
VIROQUA        CLOUDY    17  14  86 NW5       30.27R WCI  10
BOSCOBEL       CLOUDY    21  13  71 N3        30.32R
PRAIRIE DU CHI CLEAR     20  13  77 N3        30.30F
PLATTEVILLE    CLEAR     17  14  90 CALM      30.26F
$$

WIZ056-057-062-063-064-067-068-180400-
SOUTH CENTRAL WISCONSIN

CITY           SKY/WX    TMP DP  RH WIND       PRES   REMARKS
REEDSBURG      CLEAR     17  12  80 W5        30.28S WCI  10
BARABOO/DELLS  CLEAR     17  13  83 NW3       30.27S
LONE ROCK      CLOUDY    25  14  63 N5        30.30R WCI  19
MINERAL POINT  PTCLDY    19  16  86 N3        30.25F
MADISON        PTCLDY    19  13  77 NW5       30.27S WCI  12
MIDDLETON      PTCLDY    21  15  77 NW5       30.27S WCI  15
WATERTOWN      CLEAR     19  15  83 W5        30.26S WCI  12
MONROE         CLOUDY    23  18  80 NW5       30.25S WCI  17
JANESVILLE     CLOUDY    27  18  69 NW6       30.27S WCI  20
$$

WIZ051-052-058>065-066-070>072-180400-
SOUTHEAST WISCONSIN

CITY           SKY/WX    TMP DP  RH WIND       PRES   REMARKS
MILWAUKEE      CLEAR     22  13  68 W9        30.25S WCI  12
WAUKESHA       CLEAR     19  14  79 W9        30.26R WCI   9
MILWAUKEE/TIMM CLEAR     21  14  73 W9        30.26S WCI  11
RACINE         PTCLDY    21  14  74 W7        30.27S WCI  12
BURLINGTON     PTCLDY    19  13  79 W5        30.27R WCI  12
KENOSHA        PTCLDY    21  15  78 W8        30.26S WCI  11
FOND DU LAC    CLOUDY    21  13  71 W9        30.24R WCI  11
SHEBOYGAN      MOCLDY    21  14  74 NW7       30.22R WCI  12
WEST BEND      CLEAR     21  14  73 W7        30.23S WCI  13
JUNEAU         PTCLDY    18  14  84 W6        30.26S WCI  10
$$

LSZ147-162-180400-
LAKE SUPERIOR

STATION/POSITION TIME  TEMP    WIND        PRES    WAVE
                       AIR SEA DIR/SP/G            HT/PER
                 (UTC) (F)     (DEG/KT/KT) (MB)    (FT/S)
DEVILS ISLAND    0300   25      40/ 13/ 14 1027.6F
PORT WING        0200   20     170/  3/  6 1026.4
SAXON HARBOR     0200   27      10/  9/ 15 1026.1R
$$

LMZ867-665-643>646-180400-
LAKE MICHIGAN

STATION/POSITION TIME  TEMP    WIND        PRES    WAVE
                       AIR SEA DIR/SP/G            HT/PER
                 (UTC) (F)     (DEG/KT/KT) (MB)    (FT/S)
CHAMBERS ISLAND  0200   28     300/ 12/ 16 1022.4R
NORTHPORT PIER   0200   30     330/ 18/ 21 1022.0R
SISTER BAY       0213          350/ 21/ 23   N/A
ALGOMA LAKESHORE 0214          340/ 10/ 12   N/A
KEWAUNEE LAKESHO 0200   27     310/  8/ 11 1021.7R
SHEBOYGAN LAKESH 0300   23 34  280/ 11/ 12 1024.7R
PORT WASHINGTON  0240   23     300/  7/ 13 1024.7R
MILWAUKEE LAKESH 0300   23     290/ 11/ 16   N/A
KENOSHA   LAKESH 0300   23     280/  6/ 10 1024.7S
$$

TC  - TEMPERATURE IN CELSIUS
VSB - VISIBILITY IN STATUTE MILES
WCI - WIND CHILL INDEX
HX  - HEAT INDEX



USA.gov is the U.S. government's official web portal to all federal, state and local government web resources and services.